Location: Albany
(35.0000°S, 118.0000°E)
Time: 00:08:15
(UTC-04:00)

Vanguard 3 - Visible Passes

Search period start: 27 June 2016 00:00
Search period end: 07 July 2016 00:00
Orbit: 510 x 3266 km, 33.3° (Epoch: 26 June)

Date Brightness Start Highest point End Pass type
(mag) Time Alt. Az. Time Alt. Az. Time Alt. Az.
27 Jun 9.4 06:29:12 10° WNW 06:39:58 75° NNE 06:51:46 26° E visible
27 Jun 9.6 08:41:33 10° W 08:56:04 84° N 08:56:21 84° NNE visible
27 Jun 10.8 10:55:34 10° W 11:00:57 27° W 11:00:57 27° W visible
28 Jun 9.3 05:16:31 10° NW 05:25:17 59° NNE 05:40:44 10° E visible
28 Jun 9.5 07:27:46 10° W 07:39:56 84° N 07:46:53 47° E visible
28 Jun 10.0 09:40:48 10° W 09:51:29 56° W 09:51:29 56° W visible
28 Jun 11.4 11:55:45 10° W 11:56:05 11° W 11:56:05 11° W visible
29 Jun 9.3 06:14:32 10° WNW 06:24:31 78° NNE 06:37:26 21° E visible
29 Jun 9.5 08:26:41 10° W 08:40:18 83° N 08:42:03 76° NE visible
29 Jun 10.7 10:40:21 10° W 10:46:39 31° W 10:46:39 31° W visible
30 Jun 9.4 07:13:05 10° W 07:24:24 84° N 07:32:38 40° E visible
30 Jun 9.9 09:25:48 10° W 09:37:14 62° WNW 09:37:14 62° WNW visible
30 Jun 11.3 11:40:31 10° W 11:41:50 13° W 11:41:50 13° W visible
01 Jul 9.1 05:59:57 10° WNW 06:09:13 80° N 06:23:15 16° E visible
01 Jul 9.5 08:11:53 10° W 08:24:37 80° N 08:27:51 66° NE visible
01 Jul 10.5 10:25:15 10° W 10:32:28 35° W 10:32:28 35° W visible
02 Jul 9.3 06:58:27 10° W 07:08:59 84° N 07:18:32 33° E visible
02 Jul 9.7 09:10:53 10° W 09:23:10 65° NW 09:23:10 65° NW visible
02 Jul 11.2 11:25:29 10° W 11:27:46 16° W 11:27:46 16° W visible
03 Jul 9.0 05:45:27 10° WNW 05:54:00 81° N 06:09:16 11° E visible
03 Jul 9.4 07:57:09 10° W 08:09:00 77° NNW 08:13:54 55° NE visible
03 Jul 10.4 10:10:18 10° W 10:18:31 38° WNW 10:18:31 38° WNW visible
04 Jul 9.1 06:43:52 10° W 06:53:39 82° N 07:04:42 26° E visible
04 Jul 9.7 08:56:04 10° W 09:09:02 62° NNW 09:09:20 62° NNW visible
04 Jul 11.1 11:10:39 10° W 11:13:58 18° W 11:13:58 18° W visible
05 Jul 8.8 05:30:59 10° W 05:38:54 82° N 05:53:33 10° E visible
05 Jul 9.4 07:42:29 10° W 07:53:28 73° NNW 08:00:15 44° NE visible
05 Jul 10.3 09:55:29 10° W 10:04:53 40° WNW 10:04:53 40° WNW visible
06 Jul 9.0 06:29:21 10° W 06:38:24 80° N 06:51:16 18° ENE visible
06 Jul 9.8 08:41:21 10° W 08:53:21 57° NNW 08:55:55 53° N visible
06 Jul 11.0 10:56:06 10° W 11:00:33 20° WNW 11:00:33 20° WNW visible
